Wetbulb
53.40 53.74 53.40 53.75 53.87 54.48 54.70 55.08 55.40 55.58 56.20 56.61 56.29 54.35 53.01 54.05 52.82 54.91 57.43 58.72 59.59 59.14 57.81 57.92 56.43 54.44 52.94 52.01 50.98 50.20 48.76 47.54
53.46 53.14 52.61 52.97 52.60 52.49 53.62 53.97 54.50 54.40 54.59 54.85 54.01 52.54 51.25 52.82 53.54 56.07 58.74 58.77 60.24 58.72 57.83 57.60 55.80 55.13 54.45 52.90 50.61 48.35 46.40 46.22
52.71 52.38 51.61 51.32 51.51 52.47 53.01 53.68 53.58 53.81 54.66 54.50 53.46 53.25 52.01 53.58 54.38 56.59 59.74 60.40 60.42 59.54 58.10 57.36 55.79 54.44 53.50 51.82 49.86 46.51 45.69 45.04
52.07 51.97 51.66 50.88 50.77 51.52 52.88 53.25 52.82 53.64 53.87 52.56 51.02 51.94 53.57 53.62 54.85 55.93 58.37 60.33 60.42 60.33 58.35 57.31 55.71 55.18 53.87 51.68 49.49 47.89 45.62 44.74
52.85 52.20 51.48 50.87 50.66 51.86 52.79 53.39 52.60 53.25 53.68 52.11 51.40 52.05 51.55 54.40 55.92 56.42 57.92 59.92 59.99 59.50 58.97 57.30 55.57 55.11 53.65 52.85 49.94 47.70 47.84 46.41
52.75 52.92 52.27 52.20 51.34 50.89 51.44 52.57 52.70 53.64 54.02 53.22 52.11 51.83 53.84 55.96 53.35 54.87 57.20 58.51 59.46 58.37 58.39 57.62 55.99 55.16 54.83 53.29 49.53 48.43 49.84 49.41
53.80 54.59 53.96 52.39 52.44 51.44 51.80 51.54 52.20 55.59 54.63 54.52 54.22 53.90 55.35 56.18 53.76 54.36 56.56 58.14 58.97 58.64 58.50 58.57 57.12 56.63 55.22 53.58 51.66 49.29 49.28 48.55
53.73 54.06 53.66 52.73 52.13 52.50 52.88 53.24 53.66 55.65 56.45 55.79 55.60 56.26 56.76 56.32 55.16 55.27 55.98 56.87 56.40 57.99 59.14 58.21 57.05 55.07 54.43 53.52 51.27 50.52 48.86 48.35
53.82 54.38 55.01 54.69 53.32 53.54 54.03 54.62 55.09 55.97 56.60 56.42 56.67 57.42 57.92 57.84 57.13 55.31 58.01 58.52 59.01 59.30 59.38 58.34 57.17 53.11 52.34 52.79 50.62 50.45 48.74 48.79
53.95 54.93 55.21 55.67 55.82 54.94 54.79 55.53 56.60 57.10 57.22 57.22 57.23 57.79 58.08 58.05 57.04 56.57 57.50 59.41 59.42 58.57 57.35 55.78 54.12 53.17 52.48 51.26 50.28 48.64 48.83 48.54
53.54 54.85 55.65 56.56 56.81 57.19 56.93 57.00 56.74 57.49 58.04 58.37 58.46 58.31 58.69 59.08 57.66 57.40 57.70 55.35 55.90 55.62 54.39 53.52 51.71 51.35 50.04 50.30 49.42 48.21 48.06 48.31
53.16 53.90 55.85 56.78 57.76 57.61 57.34 57.55 57.60 57.69 58.43 58.73 58.57 58.67 59.04 58.53 57.93 57.66 56.88 56.84 56.26 54.57 53.21 51.69 50.81 50.54 49.32 48.53 47.83 47.76 47.51 46.96
52.27 53.12 54.52 55.68 56.18 57.08 57.97 58.11 58.45 58.92 59.26 59.42 58.60 58.25 57.69 58.28 58.42 57.64 57.32 57.38 57.00 55.72 53.45 53.27 51.05 49.29 48.85 47.42 46.77 47.35 46.43 45.37
50.55 50.61 52.28 53.64 54.87 56.31 56.81 57.78 58.26 59.32 58.71 59.50 59.37 59.14 59.07 59.58 59.58 58.26 58.72 58.08 57.30 54.21 53.83 52.08 50.09 49.26 47.66 46.71 46.71 46.11 45.53 45.28
51.04 50.72 51.81 52.30 53.87 55.54 56.49 57.00 58.53 58.58 57.49 57.70 58.04 58.38 59.29 59.84 59.78 57.59 56.84 54.86 53.56 52.80 51.29 50.35 48.67 47.39 46.80 46.32 45.69 45.14 44.63 44.59
50.53 51.08 51.70 52.95 54.81 56.13 56.91 57.59 58.38 58.63 57.75 57.37 56.83 57.98 59.18 57.83 55.37 54.53 53.20 52.64 51.58 50.53 49.85 48.47 46.70 46.09 45.56 45.21 44.78 44.10 43.70 43.30
50.65 52.13 52.63 54.96 55.77 55.51 55.93 56.32 56.62 58.55 58.72 58.64 57.33 56.58 55.90 54.24 52.20 50.11 48.86 48.56 47.71 46.29 45.91 45.11 44.53 44.91 40.44 41.42 43.20 43.29 42.91 41.95
47.81 52.39 53.87 55.44 55.74 55.42 54.53 54.81 55.52 55.70 56.06 55.94 55.42 54.50 53.02 51.41 50.25 48.44 47.35 44.83 44.03 43.36 43.52 43.83 42.81 43.26 39.69 40.34 39.98 41.77 40.39 39.33
50.44 53.18 53.64 54.48 53.73 52.78 52.41 53.34 52.60 51.42 51.18 50.94 50.62 49.95 49.55 48.88 46.52 44.16 41.44 41.64 41.16 38.92 38.61 39.36 39.38 39.43 38.41 38.14 36.83 36.81 35.46 37.06
MSLP
1014.60 1015.19 1015.77 1016.24 1016.54 1016.85 1017.14 1017.27 1017.38 1017.58 1017.74 1017.92 1018.08 1018.39 1018.45 1018.24 1018.37 1018.79 1019.07 1019.46 1019.63 1019.88 1020.32 1020.81 1021.16 1021.70 1022.21 1022.50 1023.05 1023.48 1023.75 1024.09
1014.65 1015.44 1015.89 1016.11 1016.65 1016.93 1017.01 1017.18 1017.38 1017.52 1017.82 1018.27 1018.46 1018.61 1018.67 1018.72 1018.47 1018.37 1018.95 1019.20 1019.38 1019.82 1019.95 1020.52 1020.81 1021.29 1021.74 1022.01 1022.67 1023.21 1023.69 1024.12
1014.47 1015.09 1015.51 1015.70 1016.15 1016.67 1016.90 1017.13 1017.37 1017.48 1017.70 1018.11 1018.58 1018.52 1018.67 1018.57 1018.33 1018.46 1018.45 1018.70 1019.05 1019.55 1019.73 1020.02 1020.28 1021.01 1021.31 1021.74 1022.19 1023.10 1023.62 1024.05
1013.71 1014.50 1014.84 1015.23 1015.63 1015.83 1016.26 1016.58 1016.86 1017.21 1017.36 1017.96 1018.18 1018.59 1018.29 1018.56 1018.09 1018.27 1018.12 1018.44 1018.73 1018.85 1019.40 1019.71 1020.02 1020.29 1020.85 1021.24 1021.71 1022.36 1023.45 1024.13
1012.42 1013.26 1014.02 1014.41 1014.89 1015.44 1015.68 1016.17 1016.61 1016.72 1017.11 1017.37 1017.67 1017.59 1017.49 1017.71 1017.80 1017.95 1017.95 1018.02 1018.11 1018.43 1018.84 1019.26 1019.64 1020.01 1020.47 1020.78 1021.37 1021.98 1022.50 1023.42
1011.42 1011.87 1012.32 1012.88 1013.93 1014.55 1015.11 1015.84 1016.41 1016.27 1016.44 1016.77 1017.05 1017.09 1017.27 1017.33 1017.52 1017.54 1017.61 1017.65 1017.74 1018.09 1018.35 1018.74 1019.22 1019.53 1019.91 1020.38 1021.06 1021.42 1021.66 1022.42
1009.88 1010.53 1011.72 1012.26 1013.01 1013.72 1014.20 1014.78 1015.22 1015.54 1015.69 1015.96 1016.15 1016.34 1016.79 1017.09 1017.14 1017.25 1017.23 1017.38 1017.58 1017.65 1017.88 1018.25 1018.78 1019.05 1019.52 1019.94 1020.59 1020.87 1021.33 1021.81
1009.13 1010.05 1010.84 1011.54 1012.18 1012.65 1013.38 1013.80 1014.01 1014.40 1014.72 1014.89 1015.01 1015.25 1015.80 1016.04 1016.14 1016.36 1016.74 1016.95 1016.83 1016.96 1017.29 1017.80 1018.24 1018.44 1018.88 1019.38 1020.09 1020.64 1021.02 1021.68
1007.61 1008.23 1008.95 1009.70 1010.54 1011.29 1011.95 1012.44 1012.95 1013.04 1013.12 1013.30 1013.86 1014.44 1014.77 1015.07 1015.20 1015.68 1015.88 1016.05 1016.20 1016.36 1016.72 1016.96 1017.58 1018.07 1018.66 1018.95 1019.42 1020.13 1020.59 1021.27
1006.16 1006.92 1007.74 1008.40 1009.27 1009.69 1010.10 1010.89 1011.11 1011.25 1011.41 1012.20 1012.54 1013.05 1013.50 1013.88 1014.14 1014.56 1015.11 1015.24 1015.28 1015.69 1015.97 1016.70 1017.37 1017.98 1018.66 1019.05 1019.37 1020.01 1020.38 1021.02
1005.02 1005.74 1006.28 1006.79 1007.41 1008.05 1008.95 1009.30 1009.29 1009.20 1010.51 1011.67 1012.06 1012.22 1012.67 1012.98 1013.61 1014.09 1014.57 1015.16 1015.45 1015.90 1016.21 1016.65 1016.81 1017.49 1018.05 1018.96 1019.41 1019.86 1020.38 1020.95
1004.02 1004.56 1005.09 1005.59 1006.00 1006.96 1007.45 1008.33 1008.79 1009.43 1009.76 1010.26 1010.58 1011.09 1011.68 1012.50 1013.23 1013.90 1014.75 1014.63 1014.99 1015.32 1016.33 1016.77 1016.96 1017.69 1018.30 1018.92 1019.25 1019.68 1020.15 1020.66
1003.06 1003.44 1003.94 1004.69 1005.25 1005.96 1006.46 1007.02 1007.85 1007.82 1008.29 1009.84 1010.77 1011.80 1011.78 1012.32 1013.01 1013.24 1013.71 1012.78 1014.95 1014.36 1015.86 1016.31 1016.62 1017.17 1018.02 1018.57 1018.93 1019.35 1019.80 1020.35
1002.38 1002.92 1003.44 1003.81 1004.27 1004.67 1005.27 1005.73 1006.02 1006.54 1008.22 1008.77 1009.39 1009.96 1010.02 1010.42 1010.94 1012.15 1012.33 1013.27 1012.79 1014.59 1015.17 1015.64 1015.98 1017.00 1017.74 1018.23 1018.69 1019.15 1019.60 1020.09
1002.33 1002.56 1002.87 1003.19 1003.49 1003.76 1004.18 1004.48 1004.67 1006.16 1007.20 1007.94 1008.21 1008.96 1008.89 1009.52 1010.11 1010.79 1011.86 1012.74 1013.86 1014.31 1014.86 1015.31 1015.85 1016.81 1017.45 1018.01 1018.54 1019.04 1019.60 1020.14
1002.22 1002.26 1002.64 1003.10 1003.20 1003.51 1003.56 1003.57 1004.15 1005.29 1006.40 1007.05 1007.30 1008.06 1008.59 1009.47 1010.37 1011.05 1011.84 1012.76 1013.33 1013.88 1014.58 1015.37 1016.05 1016.79 1017.21 1017.72 1018.36 1018.96 1019.49 1020.00
1001.40 1001.89 1002.18 1002.83 1003.24 1003.49 1003.63 1004.13 1004.60 1005.23 1006.20 1006.95 1007.65 1008.38 1009.06 1009.75 1010.40 1011.19 1012.08 1012.96 1013.70 1014.43 1015.06 1015.52 1016.25 1016.78 1017.11 1017.79 1018.40 1018.93 1019.32 1019.94
1001.06 1001.43 1001.72 1002.25 1002.86 1003.23 1003.79 1004.40 1004.93 1005.76 1006.53 1007.43 1008.21 1008.78 1009.31 1010.19 1011.02 1011.74 1012.66 1013.54 1014.28 1014.72 1015.23 1015.83 1016.47 1016.91 1017.46 1017.91 1018.29 1018.85 1019.54 1020.23
1000.19 1000.74 1001.44 1002.22 1002.93 1003.72 1004.26 1004.93 1005.58 1006.37 1007.31 1007.99 1008.71 1009.60 1010.42 1011.01 1011.85 1012.61 1013.06 1013.67 1014.28 1015.18 1015.85 1016.29 1016.76 1017.19 1017.54 1018.10 1018.62 1019.25 1020.04 1020.66
Wind_Speed
10 11 10 11 8 10 11 10 12 11 9 6 1 1 1 2 3 4 5 4 6 6 5 6 6 5 5 3 5 2 4 5
10 10 11 12 10 11 12 11 9 9 9 9 5 5 2 3 3 4 6 6 6 6 5 5 5 8 9 8 4 5 1 3
12 12 11 12 14 14 14 14 12 11 9 8 5 7 3 3 3 6 7 7 7 7 7 6 8 6 6 6 6 3 2 3
14 16 15 13 15 16 16 15 15 13 12 6 3 3 2 5 6 8 8 6 7 8 7 6 8 7 7 7 6 7 4 1
15 17 17 17 17 13 14 14 14 13 14 10 10 10 10 10 9 8 7 9 10 10 9 9 8 6 6 6 5 4 5 5
22 21 20 20 17 16 14 15 16 16 13 13 10 12 10 5 4 8 9 7 10 10 9 9 8 7 6 7 7 7 5 6
23 23 19 18 16 16 16 18 19 17 17 17 17 17 13 9 7 8 9 8 6 9 9 9 7 9 8 8 6 9 6 5
21 21 19 18 20 21 19 21 22 20 20 20 21 19 15 16 14 11 9 6 5 9 10 9 8 8 9 8 10 8 8 8
22 24 23 23 24 23 22 23 22 23 23 23 20 20 13 13 15 9 9 10 8 11 12 10 9 6 7 9 8 7 8 7
23 22 22 22 23 26 26 24 25 25 26 22 22 19 20 15 14 10 9 11 8 8 10 8 8 9 9 9 6 8 7 7
19 19 21 21 23 24 24 25 27 28 21 17 17 19 16 16 11 12 8 5 6 5 5 8 11 11 9 7 5 5 8 5
16 16 19 21 20 20 22 23 22 20 18 19 21 17 16 9 6 5 4 7 4 5 6 7 9 9 8 8 7 9 9 8
16 13 16 18 18 17 19 20 20 21 19 9 6 1 3 7 7 9 11 7 5 13 10 10 10 10 9 9 10 9 10 9
7 9 13 13 15 17 17 18 22 20 9 12 13 13 15 19 16 14 13 11 14 10 11 11 10 10 9 8 8 9 9 8
11 8 10 9 9 9 15 17 19 14 14 12 13 12 14 13 11 12 12 10 10 10 8 8 9 9 9 9 8 8 7 7
9 8 7 7 7 6 5 13 14 12 15 15 15 8 8 7 10 11 9 8 6 6 7 6 8 9 7 10 9 8 9 8
11 9 8 9 10 9 7 7 6 8 9 8 7 9 11 11 10 11 10 9 7 8 8 9 9 6 12 11 10 8 8 8
11 12 12 11 11 11 10 9 11 12 12 11 10 11 11 10 9 9 9 8 8 7 7 8 7 7 12 12 11 7 7 6
11 11 8 8 8 8 11 10 10 12 11 10 10 10 10 11 11 10 9 8 9 7 6 6 6 4 13 13 13 8 6 6
Wind_Direction
178 168 167 163 167 167 170 168 165 163 169 185 242 271 262 234 156 168 197 213 194 172 176 172 164 159 159 155 156 166 162 175
167 166 171 164 172 182 181 182 183 168 178 185 178 214 227 280 248 208 209 211 201 186 175 173 161 174 183 182 149 161 156 148
164 178 184 178 178 189 186 186 184 193 184 186 187 193 210 227 219 254 222 199 186 187 184 188 178 182 182 168 156 132 111 159
176 181 191 187 193 191 190 188 185 190 189 182 180 178 244 221 234 241 234 201 188 189 194 191 191 188 185 185 170 152 142 201
186 185 187 193 197 194 192 194 196 195 192 195 204 203 206 219 224 221 214 202 203 199 190 191 191 190 187 180 162 162 139 147
188 194 196 190 184 190 194 193 202 205 201 204 206 219 219 228 220 225 227 209 209 205 192 190 194 195 194 168 169 164 168 155
193 193 187 192 188 192 193 195 205 207 206 208 209 213 217 220 227 221 225 222 210 204 195 194 198 202 193 178 180 166 165 142
193 190 191 189 191 192 196 200 204 206 207 210 212 215 212 219 222 220 212 207 200 197 183 193 204 201 196 174 178 177 168 171
196 194 190 191 192 194 198 200 206 206 209 213 214 218 218 222 225 214 214 215 211 189 200 200 202 181 189 184 174 177 161 160
200 197 196 194 195 198 198 200 206 208 211 212 214 214 217 217 220 202 202 208 207 189 180 165 170 179 192 178 171 168 161 163
203 200 200 197 201 201 201 206 208 211 214 215 220 221 219 221 212 201 200 142 126 146 189 180 167 180 163 168 159 152 159 167
201 201 204 206 204 199 203 207 213 213 209 212 217 214 221 202 185 171 166 153 168 186 181 172 158 160 166 175 164 162 169 167
197 189 196 202 207 208 204 207 210 214 211 213 169 199 152 142 144 162 181 154 218 217 184 189 182 168 170 175 168 171 169 163
174 163 184 191 206 210 206 205 211 212 158 156 157 180 181 187 182 187 183 188 210 188 185 185 170 175 170 161 157 162 168 160
191 185 172 170 177 185 201 205 211 185 176 185 194 201 196 214 197 177 181 174 178 179 174 165 160 154 157 155 156 161 145 150
217 202 173 159 160 140 173 202 203 175 180 192 209 207 194 166 144 147 148 154 147 143 145 137 139 150 155 153 157 152 152 152
203 204 178 157 159 149 140 136 122 135 164 182 152 151 151 150 137 132 128 127 125 132 142 139 143 152 148 144 152 155 148 153
193 193 187 170 159 151 149 135 124 124 140 136 140 139 135 130 129 125 128 127 130 122 121 132 135 138 155 150 135 136 130 119
189 185 159 150 130 123 125 127 123 121 126 125 128 132 132 130 131 136 129 132 126 128 129 134 130 128 139 128 109 106 106 107